[[{"header":{"parameterUnit":"m.s-1","parameterCategory":1,"la1":30.2991,"la2":30.254,"lo1":-89.0895,"lo2":-89.0444,"dy":0.0017,"dx":0.0017,"nx":28,"ny":28,"refTime":"2024-03-03T03:00:00:Z","depth":0,"parameterNumber":2,"parameterNumberName":"U-component_of_WINDS"},"data":[0,0,0,0,0,0,0,0,0,0,0,0,0,0,0,0,0,0,0,0,0,0,0,0,0,0,0,0,0,0,0,0,0,0,0,0,0,0,0,0,0,0,0,0,0,0,0,0,0,0,0,0,0,0,0,0,0,0,-5.5703,-5.5702,0,-5.5646,-5.5646,-5.5645,-5.5481,-5.5478,-5.5474,-5.5471,-5.5416,-5.5418,-5.542,0,0,0,0,0,0,0,0,0,0,0,0,0,-5.5673,-5.5675,-5.5703,-5.5702,-5.5701,-5.5646,-5.5646,-5.5645,-5.5482,-5.5478,-5.5473,-5.5469,-5.5416,-5.5418,-5.542,0,0,0,0,0,0,0,0,0,0,0,0,0,-5.5659,-5.5675,-5.5703,-5.5613,-5.5605,-5.5647,-5.5646,-5.5645,-5.5483,-5.5478,-5.5472,-5.5467,-5.5415,-5.5418,-5.542,-5.5545,0,0,-5.5429,-5.543,0,0,0,0,0,0,0,0,-5.566,-5.566,-5.5627,-5.5619,-5.561,-5.5565,-5.5615,-5.5612,-5.5484,-5.5529,-5.5471,-5.5465,-5.547,-5.5468,-5.547,-5.5543,-5.554,-5.5429,-5.5431,-5.5432,-5.5433,0,0,0,0,0,0,0,-5.5661,-5.5662,-5.568,-5.5627,-5.5616,-5.5577,-5.5569,-5.5614,-5.5531,-5.5525,-5.5513,-5.5508,-5.5465,-5.5467,-5.5467,-5.554,-5.5429,-5.5432,-5.5434,-5.5435,-5.5714,-5.572,0,0,0,0,0,0,-5.5674,-5.5663,-5.5682,-5.5679,-5.5622,-5.5582,-5.5573,-5.5585,-5.553,-5.5516,-5.5513,-5.5501,-5.5465,-5.5464,-5.5465,-5.5607,-5.5432,-5.5435,-5.5437,-5.5709,-5.5716,-5.5722,0,0,0,0,0,0,-5.5674,-5.5678,-5.5684,-5.5668,-5.5666,-5.5588,-5.5603,-5.5587,-5.5589,-5.5521,-5.5505,-5.5531,-5.5461,-5.5461,-5.5527,-5.5603,-5.5436,-5.5439,-5.5702,-5.5711,-5.5719,-5.5894,0,0,0,0,0,0,-5.5674,-5.5678,-5.5724,-5.567,-5.5667,-5.5746,-5.5608,-5.559,-5.5594,-5.5578,-5.5533,-5.5521,-5.5457,-5.5523,-5.553,-5.5604,-5.5441,-5.5695,-5.5706,-5.5716,-5.5881,-5.5907,-5.593,0,0,0,0,0,-5.5674,-5.5776,-5.5727,-5.573,-5.5722,-5.5751,-5.5749,-5.5673,-5.5601,-5.5646,-5.5603,-5.5522,-5.5595,-5.5531,-5.5537,-5.5613,-5.5689,-5.5703,-5.5715,-5.587,-5.5902,-5.5929,0,0,0,0,0,0,-5.584,-5.5767,-5.5712,-5.5799,-5.5783,-5.5723,-5.5778,-5.5709,-5.5713,-5.5698,-5.5604,-5.5596,-5.5675,-5.5651,-5.5582,-5.5732,-5.5629,-5.5643,-5.5744,-5.5775,-5.5799,-5.5802,-5.5443,0,0,0,0,0,-5.5887,-5.5916,-5.585,-5.5934,-5.5929,-5.5856,-5.5865,-5.5808,-5.5787,-5.578,-5.5741,-5.5725,-5.5744,-5.5758,-5.5772,-5.5878,-5.5866,-5.5934,-5.5958,-5.5979,-5.5992,-5.6047,-5.6076,-5.5764,-5.5764,-5.5764,0,0,-5.5984,-5.5948,-5.5971,-5.5967,-5.5947,-5.598,-5.585,-5.589,-5.5914,-5.5786,-5.5845,-5.5817,-5.5793,-5.588,-5.5916,-5.5863,-5.6076,-5.5995,-5.6012,-5.6014,-5.6063,-5.6093,-5.6119,-5.5773,-5.5771,-5.577,0,0,-5.6177,-5.6153,-5.6219,-5.6203,-5.6175,-5.6127,-5.6144,-5.6095,-5.6071,-5.613,-5.6035,-5.6063,-5.6098,-5.6085,-5.6083,-5.6276,-5.6202,-5.6284,-5.6411,-5.6466,-5.6491,-5.6512,-5.658,-5.6606,-5.6297,-5.6298,-5.6298,0,-5.6301,-5.6345,-5.6263,-5.6309,-5.6311,-5.6197,-5.6265,-5.6254,-5.6233,-5.6237,-5.6177,-5.6219,-5.6195,-5.6278,-5.6325,-5.6328,-5.6345,-5.6286,-5.6494,-5.6514,-5.6533,-5.6597,-5.6623,-5.6308,-5.6307,-5.6306,-5.6305,0,-5.6499,-5.6532,-5.659,-5.6572,-5.658,-5.6638,-5.6566,-5.6584,-5.6528,-5.6487,-5.6549,-5.6517,-5.6523,-5.6539,-5.6484,-5.6615,-5.6582,-5.651,-5.6403,-5.6574,-5.6633,-5.6657,-5.6322,-5.6319,-5.6316,-5.6313,0,0,-5.6791,-5.6729,-5.6752,-5.6743,-5.6706,-5.673,-5.6785,-5.679,-5.6808,-5.6799,-5.6842,-5.6876,-5.6809,-5.6807,-5.6751,-5.68,-5.6955,-5.6721,-5.6719,-5.6765,-5.7097,-5.715,-5.718,-5.6907,-5.6911,-5.6915,-5.7099,0,-5.6972,-5.7058,-5.6988,-5.7087,-5.7117,-5.7012,-5.7059,-5.7043,-5.7007,-5.7029,-5.6989,-5.7014,-5.6925,-5.6923,-5.6967,-5.6927,-5.702,-5.6913,-5.6946,-5.6948,-5.6953,-5.721,-5.7266,-5.7441,-5.7121,-5.7125,-5.7128,0,-5.7194,-5.7195,-5.7298,-5.7256,-5.7266,-5.7309,-5.731,-5.7332,-5.7312,-5.7283,-5.7283,-5.7215,-5.7266,-5.7165,-5.7235,-5.7163,-5.7174,-5.7157,-5.7162,-5.716,-5.7046,-5.7214,-5.7495,-5.7521,-5.7163,-5.716,-5.7158,0,-5.7395,-5.7423,-5.7488,-5.7484,-5.7437,-5.7471,-5.7453,-5.7428,-5.7437,-5.7439,-5.7443,-5.7452,-5.7456,-5.7465,-5.7401,-5.7333,-5.748,-5.7372,-5.7457,-5.7459,-5.749,-5.7488,-5.7775,-5.7501,-5.75,-5.75,-5.7499,0,-5.7604,-5.767,-5.7578,-5.7618,-5.7691,-5.7611,-5.7685,-5.7657,-5.7637,-5.7671,-5.7582,-5.7616,-5.753,-5.7556,-5.7507,-5.7573,-5.7576,-5.7554,-5.754,-5.7561,-5.7564,-5.7564,-5.755,-5.7507,-5.7505,-5.7504,-5.7503,0,-5.7839,-5.7779,-5.7843,-5.7796,-5.7785,-5.7841,-5.78,-5.7836,-5.7796,-5.784,-5.7846,-5.7783,-5.7809,-5.7748,-5.7765,-5.7732,-5.7826,-5.7793,-5.7832,-5.7821,-5.7909,-5.7901,-5.8204,-5.8239,-5.7945,-5.7948,-5.7951,0,-5.7974,-5.8023,-5.7981,-5.7997,-5.7985,-5.8012,-5.8021,-5.7946,-5.7959,-5.7942,-5.7981,-5.8,-5.801,-5.8057,-5.8014,-5.8027,-5.7993,-5.8099,-5.7994,-5.8014,-5.7993,-5.799,-5.7995,-5.8119,-5.8123,-5.8126,-5.8128,0,-5.822,-5.819,-5.8205,-5.8212,-5.8225,-5.8227,-5.8222,-5.8241,-5.8162,-5.8181,-5.8207,-5.8215,-5.8234,-5.8254,-5.8258,-5.8241,-5.8172,-5.8162,-5.8182,-5.8202,-5.8222,-5.8212,-5.7889,-5.8154,-5.8152,-5.815,-5.8148,-5.8147,-5.8408,-5.8447,-5.8425,-5.8446,-5.8435,-5.8434,-5.8466,-5.8431,-5.845,-5.8459,-5.8415,-5.845,-5.8433,-5.8431,-5.8422,-5.845,-5.8402,-5.8431,-5.8438,-5.8446,-5.846,-5.8221,-5.8451,-5.845,-5.8449,-5.8448,-5.8448,0,-5.8649,-5.863,-5.865,-5.8647,-5.8665,-5.86,-5.8593,-5.8612,-5.8644,-5.8634,-5.8647,-5.8677,-5.8697,-5.8657,-5.8671,-5.8701,-5.867,-5.8708,-5.8703,-5.8701,-5.8502,-5.8483,-5.8733,-5.8733,-5.8732,-5.8732,-5.8732,-5.8732,-5.8775,-5.8838,-5.8806,-5.8864,-5.8845,-5.8879,-5.8881,-5.888,-5.8871,-5.8909,-5.8925,-5.8899,-5.8877,-5.889,-5.8906,-5.8894,-5.8902,-5.8951,-5.8928,-5.8742,-5.8714,-5.8688,-5.8669,-5.8954,-5.8954,-5.9123,-5.9125,-5.9126]},{"header":{"parameterUnit":"m.s-1","parameterCategory":1,"la1":30.2991,"la2":30.254,"lo1":-89.0895,"lo2":-89.0444,"dy":0.0017,"dx":0.0017,"nx":28,"ny":28,"refTime":"2024-03-03T03:00:00:Z","depth":0,"parameterNumber":3,"parameterNumberName":"V-component_of_WINDS"},"data":[0,0,0,0,0,0,0,0,0,0,0,0,0,0,0,0,0,0,0,0,0,0,0,0,0,0,0,0,0,0,0,0,0,0,0,0,0,0,0,0,0,0,0,0,0,0,0,0,0,0,0,0,0,0,0,0,0,0,1.4693,1.4695,0,1.4879,1.4881,1.4884,1.5032,1.5034,1.5035,1.5037,1.5223,1.5227,1.523,0,0,0,0,0,0,0,0,0,0,0,0,0,1.4463,1.4466,1.4692,1.4695,1.4697,1.4879,1.4882,1.4884,1.5032,1.5034,1.5036,1.5037,1.5222,1.5226,1.523,0,0,0,0,0,0,0,0,0,0,0,0,0,1.4597,1.4468,1.4692,1.4793,1.4804,1.4879,1.4882,1.4885,1.5032,1.5034,1.5036,1.5038,1.5221,1.5226,1.5231,1.5219,0,0,1.5247,1.525,0,0,0,0,0,0,0,0,1.4589,1.4605,1.4776,1.4786,1.4799,1.4935,1.4869,1.4997,1.5031,1.4945,1.5037,1.5039,1.5125,1.5138,1.5168,1.5228,1.5236,1.5248,1.5251,1.5253,1.5255,0,0,0,0,0,0,0,1.458,1.4598,1.4766,1.4778,1.4792,1.4829,1.485,1.4894,1.502,1.4953,1.4964,1.4984,1.5132,1.5163,1.5174,1.5238,1.5248,1.5252,1.5256,1.5258,1.5301,1.5299,0,0,0,0,0,0,1.4555,1.459,1.476,1.4772,1.4698,1.4831,1.4855,1.4889,1.502,1.5042,1.4982,1.4991,1.5153,1.5167,1.5181,1.5178,1.5253,1.5258,1.5261,1.5303,1.5301,1.5299,0,0,0,0,0,0,1.455,1.4569,1.4753,1.4684,1.471,1.4833,1.4869,1.4891,1.4923,1.5042,1.5065,1.4991,1.5155,1.5173,1.521,1.5187,1.5261,1.5266,1.5306,1.5303,1.53,1.517,0,0,0,0,0,0,1.4543,1.4566,1.4563,1.4683,1.4713,1.4778,1.4868,1.4893,1.4932,1.4945,1.5057,1.5077,1.5158,1.5201,1.5215,1.5195,1.527,1.5308,1.5304,1.5301,1.5177,1.5163,1.5151,0,0,0,0,0,1.4534,1.4517,1.4562,1.4582,1.4712,1.4777,1.4794,1.4889,1.4929,1.4928,1.5005,1.5074,1.5187,1.5203,1.522,1.5202,1.531,1.5305,1.5301,1.5183,1.5166,1.5151,0,0,0,0,0,0,1.4389,1.4534,1.4586,1.4607,1.4679,1.4802,1.4802,1.4867,1.4927,1.4936,1.505,1.5074,1.5099,1.5154,1.517,1.5199,1.5258,1.5256,1.5162,1.5147,1.5134,1.512,1.5274,0,0,0,0,0,1.4359,1.4401,1.4526,1.4533,1.4566,1.4677,1.4709,1.4777,1.4855,1.4885,1.4965,1.5037,1.509,1.5121,1.5176,1.5186,1.5214,1.5182,1.5169,1.5158,1.5155,1.5168,1.5156,1.5283,1.5284,1.5284,0,0,1.4299,1.4384,1.4402,1.4506,1.4569,1.461,1.4702,1.4739,1.4771,1.489,1.4931,1.4992,1.508,1.5104,1.5118,1.5151,1.5126,1.5152,1.5142,1.5146,1.5162,1.515,1.5139,1.528,1.5281,1.5281,0,0,1.421,1.4277,1.4292,1.4355,1.4451,1.4526,1.4529,1.4643,1.4689,1.4732,1.4823,1.4862,1.4949,1.5009,1.5051,1.4989,1.5055,1.5003,1.4935,1.4946,1.4936,1.4927,1.4907,1.4898,1.5,1.5,1.4999,0,1.4122,1.4187,1.4291,1.4325,1.4369,1.4482,1.4498,1.4553,1.4661,1.4688,1.4724,1.4838,1.4905,1.4946,1.4932,1.4961,1.4969,1.499,1.4929,1.4922,1.4915,1.4897,1.4889,1.4993,1.4994,1.4994,1.4995,0,1.4076,1.412,1.412,1.4225,1.4268,1.4293,1.4401,1.4433,1.4497,1.4568,1.4611,1.4696,1.4772,1.4787,1.4848,1.4837,1.4855,1.4908,1.4969,1.4895,1.488,1.4873,1.4983,1.4986,1.4988,1.4989,0,0,1.3898,1.4062,1.4061,1.4111,1.4227,1.4263,1.4293,1.4369,1.4395,1.4466,1.4496,1.4569,1.462,1.4667,1.4737,1.4747,1.4695,1.48,1.4803,1.4778,1.4691,1.4651,1.4641,1.474,1.4739,1.4738,1.4684,0,1.3828,1.3891,1.3987,1.4018,1.4061,1.4171,1.4198,1.4272,1.434,1.4386,1.4461,1.4512,1.4575,1.4605,1.4619,1.4698,1.4679,1.4703,1.4768,1.4769,1.4743,1.4633,1.459,1.4534,1.4678,1.4678,1.4677,0,1.3754,1.3822,1.3858,1.3974,1.3996,1.4018,1.4098,1.4141,1.4227,1.4277,1.4331,1.4409,1.4448,1.4503,1.4559,1.4573,1.4606,1.4649,1.4649,1.4659,1.4718,1.464,1.4519,1.451,1.4668,1.4669,1.467,0,1.3623,1.3724,1.376,1.3799,1.3934,1.3948,1.4004,1.4094,1.4135,1.4203,1.4231,1.4303,1.4342,1.4395,1.449,1.4522,1.4536,1.4599,1.4579,1.4576,1.4576,1.4575,1.4459,1.4596,1.4596,1.4596,1.4596,0,1.3536,1.3554,1.3703,1.3724,1.3749,1.386,1.388,1.3947,1.4026,1.4063,1.4162,1.4194,1.4317,1.4364,1.4439,1.4475,1.4491,1.4532,1.4552,1.4524,1.4519,1.4547,1.4553,1.4594,1.4594,1.4595,1.4595,0,1.3393,1.3494,1.354,1.3666,1.3698,1.371,1.3818,1.3843,1.3918,1.3964,1.3981,1.4098,1.4159,1.426,1.4349,1.4399,1.4422,1.4454,1.4393,1.4405,1.4379,1.4381,1.4277,1.427,1.4409,1.4408,1.4407,0,1.3331,1.3348,1.3477,1.351,1.3564,1.3614,1.3658,1.3768,1.3808,1.3911,1.3924,1.3993,1.4054,1.4147,1.4239,1.4309,1.4344,1.4304,1.4355,1.4328,1.4346,1.4344,1.4347,1.4291,1.4289,1.4287,1.4286,0,1.3211,1.3261,1.3319,1.3396,1.3446,1.3511,1.3581,1.3602,1.3728,1.3769,1.3834,1.3881,1.3975,1.4042,1.4126,1.4184,1.4256,1.427,1.4269,1.424,1.4205,1.4225,1.4361,1.4271,1.4273,1.4274,1.4274,1.4275,1.3108,1.313,1.3224,1.3287,1.3353,1.3417,1.3448,1.3528,1.3585,1.367,1.3732,1.3793,1.3882,1.4002,1.4057,1.4106,1.4138,1.4136,1.4136,1.4134,1.4125,1.4197,1.4122,1.4122,1.4123,1.4123,1.4124,0,1.2995,1.3062,1.3119,1.3216,1.3265,1.3331,1.3413,1.345,1.3503,1.3581,1.3641,1.3716,1.3783,1.3882,1.3957,1.3978,1.4013,1.3994,1.3993,1.4006,1.4091,1.4085,1.3964,1.3964,1.3964,1.3964,1.3964,1.3964,1.2941,1.2982,1.3043,1.3118,1.3185,1.3247,1.3289,1.3349,1.3412,1.3493,1.355,1.3615,1.3702,1.3784,1.3849,1.3877,1.39,1.3871,1.3908,1.3985,1.4,1.4014,1.4009,1.3875,1.3874,1.382,1.382,1.3819]}]]